EQX489 LIME-LRTR

Flight info

Callsign EQX489
Flight time 1h 20m
Altitude 35000
Route LEGLO DCT RIFEN DCT LULUD DCT BAREB DCT ROMUX
Aircraft A20N/M-SDE2E3FGHIRWXY/LB1

Departure

Time 2026-04-30 06:39
Airport Il Caravaggio International Airport (LIME)

Arrival

Time 2026-04-30 07:59
Airport Timișoara Traian Vuia International Airport (LRTR)
Time Latitude Longitude Altitude Speed Heading
2026-04-30 05:58 45.66635 9.69987 784 ft 0 kts 195°
2026-04-30 06:28 45.66642 9.69990 783 ft 3 kts 195°
2026-04-30 06:28 45.66665 9.69999 783 ft 3 kts 195°
2026-04-30 06:28 45.66684 9.70006 783 ft 3 kts 194°
2026-04-30 06:29 45.66705 9.70014 783 ft 3 kts 192°
2026-04-30 06:29 45.66727 9.70015 783 ft 3 kts 158°
2026-04-30 06:29 45.66744 9.69995 783 ft 3 kts 107°
2026-04-30 06:29 45.66746 9.69984 783 ft 0 kts 92°
2026-04-30 06:33 45.66746 9.69988 783 ft 2 kts 92°
2026-04-30 06:33 45.66743 9.70016 783 ft 5 kts 102°
2026-04-30 06:33 45.66733 9.70085 782 ft 9 kts 102°
2026-04-30 06:33 45.66713 9.70187 781 ft 12 kts 108°
2026-04-30 06:34 45.66683 9.70317 780 ft 15 kts 108°
2026-04-30 06:34 45.66650 9.70476 779 ft 18 kts 105°
2026-04-30 06:34 45.66617 9.70662 777 ft 20 kts 99°
2026-04-30 06:34 45.66581 9.70869 776 ft 23 kts 105°
2026-04-30 06:35 45.66539 9.71096 774 ft 24 kts 108°
2026-04-30 06:35 45.66484 9.71333 772 ft 26 kts 106°
2026-04-30 06:35 45.66447 9.71524 770 ft 9 kts 103°
2026-04-30 06:35 45.66442 9.71627 769 ft 12 kts 85°
2026-04-30 06:36 45.66465 9.71762 768 ft 16 kts 75°
2026-04-30 06:36 45.66461 9.71930 766 ft 19 kts 104°
2026-04-30 06:36 45.66427 9.72122 764 ft 21 kts 104°
2026-04-30 06:36 45.66388 9.72334 763 ft 23 kts 105°
2026-04-30 06:37 45.66381 9.72367 763 ft 0 kts 105°
2026-04-30 06:37 45.66376 9.72397 762 ft 7 kts 104°
2026-04-30 06:37 45.66416 9.72457 762 ft 13 kts 360°
2026-04-30 06:38 45.66475 9.72356 763 ft 7 kts 286°
2026-04-30 06:38 45.66476 9.72350 763 ft 0 kts 286°
2026-04-30 06:38 45.66549 9.71953 766 ft 82 kts 284°
2026-04-30 06:38 45.66754 9.70834 775 ft 147 kts 284°
2026-04-30 06:39 45.67030 9.69234 1079 ft 174 kts 283°
2026-04-30 06:39 45.67290 9.67884 1780 ft 170 kts 283°
2026-04-30 06:39 45.67218 9.66130 2305 ft 188 kts 242°
2026-04-30 06:39 45.66392 9.64670 2930 ft 190 kts 214°
2026-04-30 06:40 45.65575 9.63759 3624 ft 188 kts 211°
2026-04-30 06:40 45.65142 9.63299 3979 ft 189 kts 211°
2026-04-30 06:40 45.64096 9.62137 4680 ft 193 kts 214°
2026-04-30 06:40 45.63075 9.60874 4936 ft 196 kts 217°
2026-04-30 06:41 45.62093 9.59550 4996 ft 196 kts 219°
2026-04-30 06:41 45.61102 9.58153 4865 ft 206 kts 219°
2026-04-30 06:41 45.60089 9.56699 4858 ft 207 kts 220°
2026-04-30 06:41 45.59047 9.55215 4861 ft 216 kts 217°
2026-04-30 06:42 45.57750 9.54234 4865 ft 208 kts 186°
2026-04-30 06:42 45.56343 9.54281 4860 ft 201 kts 158°
2026-04-30 06:42 45.55171 9.55276 4860 ft 195 kts 131°
2026-04-30 06:42 45.54490 9.56912 4860 ft 193 kts 106°
2026-04-30 06:43 45.54431 9.58832 4903 ft 200 kts 80°
2026-04-30 06:43 45.55063 9.60644 5251 ft 213 kts 52°
2026-04-30 06:43 45.56063 9.62221 6206 ft 213 kts 51°
2026-04-30 06:43 45.57042 9.63807 7176 ft 213 kts 50°
2026-04-30 06:44 45.58016 9.65415 8226 ft 215 kts 49°
2026-04-30 06:44 45.59002 9.67051 9156 ft 217 kts 48°
2026-04-30 06:44 45.59945 9.68611 9858 ft 224 kts 47°
2026-04-30 06:44 45.60997 9.70345 10157 ft 226 kts 47°
2026-04-30 06:45 45.62026 9.72033 10257 ft 226 kts 47°
2026-04-30 06:45 45.63062 9.73727 10259 ft 227 kts 47°
2026-04-30 06:45 45.64107 9.75441 10426 ft 230 kts 48°
2026-04-30 06:45 45.64924 9.77424 11061 ft 234 kts 69°
2026-04-30 06:46 45.65225 9.79710 11964 ft 237 kts 82°
2026-04-30 06:46 45.65362 9.81908 12420 ft 255 kts 82°
2026-04-30 06:46 45.65542 9.84581 12810 ft 279 kts 82°
2026-04-30 06:46 45.65741 9.87444 13175 ft 302 kts 82°
2026-04-30 06:47 45.65958 9.90560 13491 ft 326 kts 82°
2026-04-30 06:47 45.66188 9.93905 13804 ft 348 kts 82°
2026-04-30 06:47 45.66423 9.97398 14478 ft 355 kts 82°
2026-04-30 06:47 45.66659 10.00923 15276 ft 358 kts 82°
2026-04-30 06:48 45.66897 10.04492 16029 ft 362 kts 82°
2026-04-30 06:48 45.67135 10.08053 16779 ft 366 kts 82°
2026-04-30 06:48 45.67378 10.11700 17534 ft 370 kts 82°
2026-04-30 06:48 45.67623 10.15385 18261 ft 374 kts 82°
2026-04-30 06:49 45.67869 10.19112 18911 ft 378 kts 82°
2026-04-30 06:49 45.68118 10.22882 19527 ft 382 kts 82°
2026-04-30 06:49 45.68366 10.26679 20168 ft 385 kts 82°
2026-04-30 06:49 45.68614 10.30522 20813 ft 389 kts 82°
2026-04-30 06:50 45.68866 10.34401 21449 ft 393 kts 82°
2026-04-30 06:50 45.69118 10.38317 22095 ft 396 kts 82°
2026-04-30 06:50 45.69371 10.42256 22710 ft 400 kts 82°
2026-04-30 06:50 45.69621 10.46182 23300 ft 404 kts 82°
2026-04-30 06:51 45.69876 10.50214 23874 ft 409 kts 82°
2026-04-30 06:51 45.70132 10.54284 24383 ft 412 kts 82°
2026-04-30 06:51 45.70387 10.58386 24876 ft 416 kts 82°
2026-04-30 06:51 45.70645 10.62526 25356 ft 419 kts 82°
2026-04-30 06:52 45.70904 10.66701 25819 ft 423 kts 82°
2026-04-30 06:52 45.71163 10.70917 26261 ft 427 kts 82°
2026-04-30 06:52 45.71422 10.75168 26724 ft 430 kts 82°
2026-04-30 06:52 45.71682 10.79448 27164 ft 434 kts 82°
2026-04-30 06:53 45.71942 10.83762 27620 ft 437 kts 82°
2026-04-30 06:53 45.72203 10.88123 28025 ft 441 kts 82°
2026-04-30 06:53 45.72460 10.92459 28427 ft 444 kts 82°
2026-04-30 06:53 45.72724 10.96926 28837 ft 447 kts 82°
2026-04-30 06:54 45.72985 11.01380 29242 ft 450 kts 82°
2026-04-30 06:54 45.73247 11.05858 29623 ft 454 kts 82°
2026-04-30 06:54 45.73505 11.10314 29980 ft 456 kts 82°
2026-04-30 06:54 45.73758 11.14716 30358 ft 459 kts 82°
2026-04-30 06:55 45.74019 11.19294 30707 ft 461 kts 82°
2026-04-30 06:55 45.74279 11.23880 31048 ft 464 kts 82°
2026-04-30 06:55 45.74539 11.28494 31387 ft 466 kts 82°
2026-04-30 06:55 45.74797 11.33113 31820 ft 465 kts 82°
2026-04-30 06:56 45.75052 11.37725 32268 ft 464 kts 82°
2026-04-30 06:56 45.75305 11.42335 32676 ft 463 kts 82°
2026-04-30 06:56 45.75555 11.46922 33092 ft 462 kts 83°
2026-04-30 06:56 45.75805 11.51524 33513 ft 462 kts 83°
2026-04-30 06:57 45.76052 11.56106 33912 ft 461 kts 83°
2026-04-30 06:57 45.76297 11.60689 34309 ft 461 kts 83°
2026-04-30 06:57 45.76536 11.65200 34627 ft 460 kts 83°
2026-04-30 06:57 45.76777 11.69776 34921 ft 461 kts 83°
2026-04-30 06:58 45.77016 11.74355 35189 ft 461 kts 83°
2026-04-30 06:58 45.77488 11.83500 35301 ft 460 kts 83°
2026-04-30 06:59 45.77953 11.92652 35311 ft 460 kts 83°
2026-04-30 06:59 45.78410 12.01806 35317 ft 460 kts 83°
2026-04-30 07:00 45.78859 12.10945 35318 ft 459 kts 83°
2026-04-30 07:00 45.79302 12.20092 35317 ft 461 kts 83°
2026-04-30 07:01 45.79735 12.29198 35321 ft 462 kts 83°
2026-04-30 07:01 45.80165 12.38399 35315 ft 463 kts 83°
2026-04-30 07:02 45.80586 12.47570 35296 ft 460 kts 83°
2026-04-30 07:02 45.81000 12.56737 35300 ft 461 kts 83°
2026-04-30 07:03 45.81407 12.65904 35298 ft 461 kts 83°
2026-04-30 07:03 45.81739 12.73529 35298 ft 461 kts 83°
2026-04-30 07:04 45.82132 12.82708 35287 ft 461 kts 83°
2026-04-30 07:04 45.82519 12.91899 35295 ft 462 kts 83°
2026-04-30 07:05 45.83085 13.05693 35294 ft 462 kts 83°
2026-04-30 07:05 45.83453 13.14897 35299 ft 462 kts 83°
2026-04-30 07:06 45.83814 13.24099 35313 ft 462 kts 84°
2026-04-30 07:06 45.84168 13.33311 35323 ft 462 kts 84°
2026-04-30 07:07 45.84512 13.42458 35324 ft 462 kts 84°
2026-04-30 07:07 45.84854 13.51663 35325 ft 462 kts 84°
2026-04-30 07:08 45.85120 13.60892 35324 ft 464 kts 87°
2026-04-30 07:08 45.85130 13.70154 35314 ft 463 kts 86°
2026-04-30 07:09 45.85189 13.79408 35313 ft 464 kts 86°
2026-04-30 07:09 45.85224 13.88663 35307 ft 464 kts 86°
2026-04-30 07:10 45.85244 13.97943 35307 ft 465 kts 86°
2026-04-30 07:10 45.85255 14.07256 35322 ft 470 kts 86°
2026-04-30 07:11 45.85258 14.16599 35334 ft 472 kts 86°
2026-04-30 07:11 45.85256 14.26001 35342 ft 470 kts 86°
2026-04-30 07:12 45.85245 14.35361 35351 ft 468 kts 86°
2026-04-30 07:12 45.85224 14.44685 35359 ft 467 kts 87°
2026-04-30 07:13 45.85198 14.53991 35367 ft 466 kts 87°
2026-04-30 07:13 45.85165 14.63281 35376 ft 466 kts 87°
2026-04-30 07:14 45.85123 14.72577 35376 ft 466 kts 87°
2026-04-30 07:14 45.85074 14.81877 35391 ft 466 kts 87°
2026-04-30 07:15 45.85018 14.91185 35393 ft 467 kts 88°
2026-04-30 07:15 45.84954 15.00450 35398 ft 468 kts 88°
2026-04-30 07:16 45.84882 15.09780 35412 ft 468 kts 88°
2026-04-30 07:16 45.84802 15.19108 35420 ft 468 kts 88°
2026-04-30 07:17 45.84715 15.28454 35423 ft 468 kts 88°
2026-04-30 07:18 45.84569 15.42481 35432 ft 469 kts 88°
2026-04-30 07:18 45.84463 15.51837 35430 ft 469 kts 88°
2026-04-30 07:19 45.84348 15.61197 35430 ft 469 kts 88°
2026-04-30 07:19 45.84225 15.70562 35423 ft 469 kts 89°
2026-04-30 07:20 45.83995 15.79930 35417 ft 470 kts 89°
2026-04-30 07:20 45.83750 15.89245 35400 ft 470 kts 89°
2026-04-30 07:21 45.83508 15.98617 35396 ft 470 kts 89°
2026-04-30 07:21 45.83261 16.07979 35392 ft 470 kts 89°
2026-04-30 07:22 45.82876 16.22033 35389 ft 471 kts 89°
2026-04-30 07:22 45.82608 16.31423 35396 ft 471 kts 89°
2026-04-30 07:23 45.82333 16.40822 35396 ft 472 kts 89°
2026-04-30 07:23 45.82050 16.50230 35390 ft 473 kts 90°
2026-04-30 07:24 45.81759 16.59614 35403 ft 473 kts 90°
2026-04-30 07:24 45.81460 16.69056 35389 ft 474 kts 90°
2026-04-30 07:25 45.81152 16.78494 35397 ft 475 kts 90°
2026-04-30 07:25 45.80836 16.87962 35392 ft 475 kts 90°
2026-04-30 07:26 45.80511 16.97428 35392 ft 476 kts 90°
2026-04-30 07:26 45.80181 17.06836 35392 ft 476 kts 90°
2026-04-30 07:27 45.79841 17.16309 35389 ft 476 kts 90°
2026-04-30 07:27 45.79492 17.25798 35387 ft 477 kts 90°
2026-04-30 07:28 45.79136 17.35295 35383 ft 477 kts 90°
2026-04-30 07:28 45.78772 17.44777 35383 ft 477 kts 90°
2026-04-30 07:29 45.78399 17.54282 35381 ft 477 kts 90°
2026-04-30 07:29 45.78018 17.63790 35380 ft 478 kts 90°
2026-04-30 07:30 45.77432 17.78038 35376 ft 478 kts 91°
2026-04-30 07:31 45.77034 17.87482 35373 ft 478 kts 91°
2026-04-30 07:31 45.76626 17.96989 35368 ft 479 kts 91°
2026-04-30 07:32 45.76207 18.06533 35368 ft 479 kts 91°
2026-04-30 07:32 45.75782 18.16058 35367 ft 480 kts 91°
2026-04-30 07:33 45.75348 18.25595 35368 ft 480 kts 91°
2026-04-30 07:33 45.74906 18.35138 35367 ft 480 kts 91°
2026-04-30 07:34 45.74783 18.44669 35367 ft 477 kts 82°
2026-04-30 07:34 45.75352 18.54084 35363 ft 478 kts 82°
2026-04-30 07:35 45.75913 18.63565 35366 ft 478 kts 82°
2026-04-30 07:35 45.76456 18.73058 35364 ft 478 kts 82°
2026-04-30 07:36 45.76990 18.82568 35305 ft 476 kts 82°
2026-04-30 07:36 45.77252 18.87292 34935 ft 474 kts 82°
2026-04-30 07:36 45.77512 18.92007 34333 ft 475 kts 83°
2026-04-30 07:36 45.77771 18.96729 33564 ft 475 kts 83°
2026-04-30 07:37 45.78027 19.01442 32823 ft 475 kts 83°
2026-04-30 07:37 45.78280 19.06153 32068 ft 475 kts 83°
2026-04-30 07:37 45.78529 19.10809 31322 ft 475 kts 83°
2026-04-30 07:37 45.78783 19.15589 30606 ft 474 kts 83°
2026-04-30 07:38 45.79025 19.20208 29981 ft 468 kts 83°
2026-04-30 07:38 45.79268 19.24895 29434 ft 461 kts 83°
2026-04-30 07:38 45.79499 19.29375 28887 ft 454 kts 83°
2026-04-30 07:38 45.79727 19.33833 28335 ft 448 kts 83°
2026-04-30 07:39 45.79957 19.38333 27786 ft 441 kts 83°
2026-04-30 07:39 45.80176 19.42678 27259 ft 435 kts 83°
2026-04-30 07:39 45.80391 19.46959 26738 ft 428 kts 82°
2026-04-30 07:39 45.80594 19.51021 26242 ft 422 kts 82°
2026-04-30 07:40 45.80801 19.55207 25741 ft 416 kts 82°
2026-04-30 07:40 45.80938 19.57991 25420 ft 412 kts 82°
2026-04-30 07:40 45.81136 19.62052 24983 ft 405 kts 82°
2026-04-30 07:40 45.81332 19.66072 24471 ft 400 kts 82°
2026-04-30 07:41 45.81520 19.69976 23992 ft 395 kts 82°
2026-04-30 07:41 45.81700 19.73746 23445 ft 390 kts 82°
2026-04-30 07:41 45.81868 19.77253 22886 ft 386 kts 82°
2026-04-30 07:41 45.82016 19.80382 22414 ft 382 kts 82°
2026-04-30 07:42 45.82259 19.84005 21851 ft 375 kts 76°
2026-04-30 07:42 45.82651 19.87008 21369 ft 372 kts 75°
2026-04-30 07:42 45.83123 19.90578 20836 ft 367 kts 75°
2026-04-30 07:42 45.83595 19.94155 20283 ft 363 kts 75°
2026-04-30 07:43 45.84061 19.97705 19608 ft 362 kts 75°
2026-04-30 07:43 45.84531 20.01278 18690 ft 366 kts 75°
2026-04-30 07:43 45.85000 20.04862 17583 ft 364 kts 75°
2026-04-30 07:43 45.85463 20.08426 16528 ft 362 kts 75°
2026-04-30 07:44 45.85922 20.11967 15490 ft 360 kts 76°
2026-04-30 07:44 45.86378 20.15495 14503 ft 358 kts 76°
2026-04-30 07:44 45.86832 20.19012 13444 ft 357 kts 76°
2026-04-30 07:44 45.87282 20.22502 12375 ft 356 kts 77°
2026-04-30 07:45 45.87730 20.25988 11340 ft 355 kts 77°
2026-04-30 07:45 45.88176 20.29470 10322 ft 354 kts 77°
2026-04-30 07:45 45.88619 20.32938 9248 ft 353 kts 77°
2026-04-30 07:45 45.89057 20.36392 8188 ft 351 kts 77°
2026-04-30 07:46 45.89487 20.39787 7176 ft 349 kts 77°
2026-04-30 07:46 45.89928 20.43247 6129 ft 347 kts 77°
2026-04-30 07:46 45.90351 20.46590 5154 ft 343 kts 77°
2026-04-30 07:46 45.90766 20.49895 4668 ft 326 kts 77°
2026-04-30 07:47 45.91148 20.52994 4443 ft 304 kts 76°
2026-04-30 07:47 45.91507 20.55878 4242 ft 284 kts 76°
2026-04-30 07:47 45.91842 20.58573 4063 ft 265 kts 76°
2026-04-30 07:47 45.92153 20.61076 4019 ft 246 kts 75°
2026-04-30 07:48 45.92466 20.63536 4010 ft 252 kts 75°
2026-04-30 07:48 45.92778 20.66003 4007 ft 251 kts 76°
2026-04-30 07:48 45.93088 20.68478 4005 ft 251 kts 76°
2026-04-30 07:48 45.93398 20.70958 4018 ft 253 kts 76°
2026-04-30 07:49 45.93722 20.73443 4007 ft 252 kts 75°
2026-04-30 07:49 45.94035 20.75922 4009 ft 252 kts 76°
2026-04-30 07:49 45.94315 20.78270 3998 ft 249 kts 76°
2026-04-30 07:49 45.94599 20.80661 4010 ft 235 kts 76°
2026-04-30 07:50 45.94870 20.82904 4012 ft 222 kts 75°
2026-04-30 07:50 45.95035 20.85033 4001 ft 215 kts 91°
2026-04-30 07:50 45.94491 20.86964 3986 ft 210 kts 125°
2026-04-30 07:50 45.93482 20.88392 3803 ft 207 kts 130°
2026-04-30 07:51 45.92528 20.89970 3425 ft 209 kts 120°
2026-04-30 07:51 45.91994 20.91126 3202 ft 209 kts 114°
2026-04-30 07:51 45.91359 20.92953 3045 ft 201 kts 107°
2026-04-30 07:51 45.90861 20.94731 3013 ft 183 kts 103°
2026-04-30 07:52 45.90442 20.96356 2994 ft 163 kts 103°
2026-04-30 07:52 45.90076 20.97771 3004 ft 137 kts 101°
2026-04-30 07:52 45.89768 20.99023 2998 ft 133 kts 100°
2026-04-30 07:52 45.89445 21.00302 2997 ft 136 kts 100°
2026-04-30 07:53 45.89122 21.01565 3001 ft 134 kts 100°
2026-04-30 07:53 45.88802 21.02827 3012 ft 136 kts 100°
2026-04-30 07:53 45.88483 21.04080 2995 ft 134 kts 100°
2026-04-30 07:53 45.88164 21.05343 3000 ft 135 kts 100°
2026-04-30 07:54 45.87846 21.06594 2984 ft 132 kts 101°
2026-04-30 07:54 45.87531 21.07844 2998 ft 134 kts 101°
2026-04-30 07:54 45.87214 21.09085 2993 ft 131 kts 101°
2026-04-30 07:54 45.86901 21.10326 2997 ft 133 kts 101°
2026-04-30 07:55 45.86587 21.11562 2995 ft 133 kts 101°
2026-04-30 07:55 45.86270 21.12817 2985 ft 132 kts 101°
2026-04-30 07:55 45.85956 21.14060 2951 ft 134 kts 101°
2026-04-30 07:55 45.85641 21.15303 2801 ft 132 kts 101°
2026-04-30 07:56 45.85325 21.16544 2620 ft 131 kts 101°
2026-04-30 07:56 45.85012 21.17783 2433 ft 131 kts 101°
2026-04-30 07:56 45.84707 21.18999 2271 ft 132 kts 101°
2026-04-30 07:56 45.84397 21.20227 2088 ft 132 kts 101°
2026-04-30 07:57 45.84086 21.21467 1902 ft 131 kts 103°
2026-04-30 07:57 45.83772 21.22706 1736 ft 132 kts 102°
2026-04-30 07:57 45.83459 21.23944 1529 ft 132 kts 102°
2026-04-30 07:57 45.83148 21.25179 1350 ft 131 kts 102°
2026-04-30 07:58 45.82837 21.26416 1169 ft 135 kts 103°
2026-04-30 07:58 45.82517 21.27678 965 ft 134 kts 102°
2026-04-30 07:58 45.82203 21.28933 793 ft 135 kts 104°
2026-04-30 07:58 45.81886 21.30195 603 ft 134 kts 104°
2026-04-30 07:59 45.81569 21.31455 416 ft 135 kts 104°
2026-04-30 07:59 45.81270 21.32684 362 ft 116 kts 108°
2026-04-30 07:59 45.81073 21.33480 355 ft 42 kts 115°
2026-04-30 08:00 45.80918 21.33542 357 ft 0 kts 197°
2026-04-30 08:01 45.80911 21.33539 355 ft 4 kts 197°
2026-04-30 08:01 45.80877 21.33507 358 ft 8 kts 232°
2026-04-30 08:01 45.80870 21.33411 360 ft 12 kts 283°
2026-04-30 08:01 45.80898 21.33288 357 ft 14 kts 288°
2026-04-30 08:02 45.80977 21.32965 354 ft 20 kts 290°
2026-04-30 08:02 45.81027 21.32772 360 ft 22 kts 288°
2026-04-30 08:03 45.81050 21.32450 352 ft 10 kts 236°
2026-04-30 08:03 45.81091 21.32205 355 ft 9 kts 291°
2026-04-30 08:03 45.81094 21.32192 353 ft 0 kts 291°
2026-04-30 08:04 45.81099 21.32154 356 ft 8 kts 285°
2026-04-30 08:04 45.81084 21.32117 355 ft 0 kts 194°
2026-04-30 08:04 45.81083 21.32116 354 ft 0 kts 194°